Regional Weather Roundup
Issued by NWS

Home | Current Version | Previous Version | Graphics & Text | Print | Product List | Glossary On
Versions: 1 2 3 4 5 6 7 8 9 10 11 12 13 14 15 16 17 18 19 20 21 22 23 24 25 26 27 28 29 30 31 32 33 34 35 36 37 38 39 40 41 42 43 44 45 46 47 48 49 50
000
ASUS43 KDTX 060701
RWRMI
MICHIGAN HOURLY REGIONAL WEATHER ROUNDUP
NATIONAL WEATHER SERVICE DETROIT/PONTIAC MI
300 AM EDT MON JUL 06 2015

NOTE: "FAIR" INDICATES FEW OR NO CLOUDS BELOW 12,000 FEET WITH NO
SIGNIFICANT WEATHER AND/OR OBSTRUCTION TO VISIBILITY.

MIZ047>049-052>055-059>063-066>070-074>076-081>083-060800-
SOUTHEAST LOWER MICHIGAN

CITY           SKY/WX    TMP DP  RH WIND       PRES   REMARKS
ADRIAN         CLEAR     60  58  92 CALM      30.07S
ALMA           CLEAR     65  59  80 S5        30.05S
ANN ARBOR      FOG       52  51  97 CALM      30.07S VSB 1/2
BAD AXE        CLEAR     61  53  75 S3        30.06S
CARO             N/A     56  55  95 CALM      30.05S FOG
DETROIT CITY   CLEAR     64  56  75 CALM      30.07S
DETROIT        MOCLDY    64  61  90 CALM      30.07F FOG
FLINT          CLEAR     61  55  81 CALM      30.06S
GROSSE ILE     CLEAR     64  61  88 CALM      30.05F
HILLSDALE      CLEAR     63  60  92 SE3       30.07S
HOWELL         CLEAR     60  57  90 SE3       30.07R

CITY           SKY/WX    TMP DP  RH WIND       PRES   REMARKS
JACKSON        CLEAR     61  56  83 S5        30.06F
LAMBERTVILLE   CLEAR     61  58  91 CALM      30.06F FOG
LANSING        CLEAR     66  54  65 S7        30.06S
LAPEER         FAIR      54  52  93 CALM      30.07R
MASON          CLEAR     59  55  87 S3        30.06S
MONROE         FOG       60  60  99 CALM      30.05F VSB 1/2
MT. CLEMENS    CLEAR     60  57  91 NW3       30.05S
PONTIAC        CLEAR     61  56  83 CALM      30.07R
PORT HOPE        N/A     68  53  58 VRB5      30.03S
PORT HURON     FOG       55  55 100 CALM      30.07S VSB 1
TRI CITIES     CLEAR     68  57  68 S7        30.05R
MIDLAND        FAIR      66  58  74 S3        30.04R
TROY           CLEAR     65  56  72 CALM      30.09R
SAGINAW HB     CLEAR     63  54  72 S6        30.04S
$$
MIZ043>046-050>051-056>058-064>065-071>073-077>080-060800-
SOUTHWEST LOWER MICHIGAN

CITY           SKY/WX    TMP DP  RH WIND       PRES   REMARKS
BATTLE CREEK   CLEAR     66  59  78 CALM      30.07R
BENTON HARBOR  CLEAR     65  60  84 SE5       30.02S
BIG RAPIDS     CLEAR     60  56  89 CALM      30.04R
COLDWATER      CLEAR     62  58  86 SE5       30.06R
FREMONT        FAIR      64  60  88 CALM      30.02R
HOLLAND        CLEAR     65  60  84 S7        30.03S
GRAND RAPIDS   CLEAR     64  60  87 S7        30.04R
IONIA          FAIR      65  59  79 S5        30.04R
KALAMAZOO      CLEAR     67  58  72 S6        30.05S
LUDINGTON      CLEAR     63  58  84 CALM      30.01R
MARSHALL       CLEAR     64  58  82 SE3       30.06R
MOUNT PLEASANT CLEAR     67  59  74 S5        30.03S
MUSKEGON       CLEAR     66  59  78 S3        30.02R
SOUTH HAVEN    CLEAR     66  61  84 CALM      30.03R
$$
MIZ016>042-060800-
NORTHERN LOWER MICHIGAN

CITY           SKY/WX    TMP DP  RH WIND       PRES   REMARKS
ALPENA         CLEAR     66  60  81 S5        30.02R
BEAVER ISLAND  CLEAR     68  57  68 S9        29.96S
BELLAIRE       CLEAR     62  59  89 CALM      30.00R
CADILLAC       CLEAR     65  60  81 S5        30.03R
CHARLEVOIX     CLEAR     68  59  74 S5        30.01S
FRANKFORT      CLEAR     71  56  58 S6        29.99R
GAYLORD        CLEAR     64  62  93 SW6       30.03R FOG
GRAYLING         N/A     56  56  97 CALM      30.05R FOG
HARBOR SPRINGS CLEAR     62  59  93 CALM      29.99R
HOUGHTON LAKE  CLEAR     65  61  87 S6        30.04R
MANISTEE       CLEAR     63  55  77 CALM      30.01S
OSCODA         CLEAR     61  59  96 CALM      30.02S
PELLSTON       CLEAR     62  60  93 SE5       29.99R
ROGERS CITY    CLEAR     66  61  85 S7        30.02R
TRAVERSE CITY  CLEAR     66  58  75 CALM      29.97S
$$
MIZ007>008-015-060800-
EASTERN UPPER MICHIGAN

CITY           SKY/WX    TMP DP  RH WIND       PRES   REMARKS
KINROSS        CLEAR     61  59  94 SE3       29.97S
MACKINAC ISLAN CLEAR     66  61  85 S9        29.97S
NEWBERRY       CLEAR     61  57  88 S9        29.94R
S. S. MARIE    CLEAR     60  56  86 CALM      29.97S
$$
MIZ004>006-011>014-085-060800-
CENTRAL UPPER MICHIGAN

CITY           SKY/WX    TMP DP  RH WIND       PRES   REMARKS
MANISTIQUE     CLEAR     59  56  88 S7        29.94R
ESCANABA       PTCLDY    68  63  83 S10       29.92R
MENOMINEE      MOCLDY    70  61  73 SW8       29.94R
SAWYER-GWINN   CLOUDY    66  61  85 SW9       29.89F
$$
MIZ001>003-009>011-084-060800-
WESTERN UPPER MICHIGAN

CITY           SKY/WX    TMP DP  RH WIND       PRES   REMARKS
IRON MOUNTAIN  CLOUDY    67  63  87 S3        29.91S
HOUGHTON       LGT RAIN  69  62  78 W20G26    29.84R
COPPER HARBOR    N/A     70  60  70 N14G29    29.81R
IRONWOOD       CLOUDY    70  68  94 SW12      29.86R
$$

ABBREVIATIONS USED IN REMARKS
   TC - TEMPERATURE IN CELSIUS
  WCI - WIND CHILL INDEX
   HX - HEAT INDEX
  VSB - VISIBILITY




USA.gov is the U.S. government's official web portal to all federal, state and local government web resources and services.